Location: Mat�lon
(46.2791°N, 7.1028°E)
Time: 02:36:41
(UTC+00:00)

Cosmos 923 Rocket - Pass Details

Date: 18 September 2020
Orbit: 759 x 784 km, 74.0° (Epoch: 29 October)

Event Time Altitude Azimuth Distance (km) Brightness Sun altitude
Rises 17:57:27 0° 335° (NNW) 3,244 7.7 -4.4°
Reaches altitude 10° 17:59:51 10° 333° (NNW) 2,310 7.0 -4.9°
Maximum altitude 18:05:02 67° 252° (WSW) 828 4.5 -5.7°
Drops below altitude 10° 18:10:10 10° 171° (S) 2,284 6.3 -6.6°
Sets 18:12:32 0° 169° (SSE) 3,204 7.0 -7.0°
